KB5SMY-13 Weather Reports


time (UTC)temp
C
wind
direction
speed
KPH
gust
KPH
rain 1hr
cm
rain 24hr
cm
rain mn
cm
humidity
%
barometer
mb
20260906223004 38 94 4.8 14.5 0.00 0.00 0.00 34 1010.3
20260906222004 38 156 3.2 16.1 0.00 0.00 0.00 34 1010.4
20260906221004 38 92 12.9 19.3 0.00 0.00 0.00 35 1010.4
20260906220004 38 132 4.8 17.7 0.00 0.00 0.00 35 1010.5
20260906215004 38 150 8.0 20.9 0.00 0.00 0.00 33 1010.7
20260906214211 38 92 11.3 12.9 0.00 0.00 0.00 33 1010.8
20260906213211 38 169 16.1 20.9 0.00 0.00 0.00 34 1010.8
20260906212004 39 92 6.4 22.5 0.00 0.00 0.00 33 1010.9
20260906211212 39 129 17.7 17.7 0.00 0.00 0.00 32 1011.0
20260906210211 39 123 6.4 12.9 0.00 0.00 0.00 33 1011.1
20260906205003 38 124 4.8 14.5 0.00 0.00 0.00 34 1011.3
20260906204004 38 132 11.3 19.3 0.00 0.00 0.00 35 1011.4
20260906203004 38 130 3.2 12.9 0.00 0.00 0.00 35 1011.5
20260906202004 38 181 4.8 17.7 0.00 0.00 0.00 36 1011.5
20260906201004 37 111 4.8 19.3 0.00 0.00 0.00 37 1011.7
20260906200004 37 158 1.6 19.3 0.00 0.00 0.00 38 1011.8
20260906195004 37 140 8.0 16.1 0.00 0.00 0.00 38 1011.9
20260906194005 38 169 8.0 16.1 0.00 0.00 0.00 38 1012.0
20260906193005 37 161 11.3 19.3 0.00 0.00 0.00 37 1012.2
20260906192004 37 59 1.6 9.7 0.00 0.00 0.00 39 1012.4
20260906191004 37 36 1.6 17.7 0.00 0.00 0.00 39 1012.5
20260906190004 37 142 14.5 19.3 0.00 0.00 0.00 39 1012.5
20260906185004 37 194 1.6 17.7 0.00 0.00 0.00 39 1012.7
20260906184003 37 152 11.3 19.3 0.00 0.00 0.00 38 1012.7
20260906183212 37 161 9.7 19.3 0.00 0.00 0.00 39 1012.8
20260906182004 37 149 14.5 16.1 0.00 0.00 0.00 41 1012.9
20260906181004 37 10 4.8 16.1 0.00 0.00 0.00 41 1013.1
20260906180211 37 148 1.6 14.5 0.00 0.00 0.00 41 1013.3
20260906175004 36 66 4.8 14.5 0.00 0.00 0.00 42 1013.4
20260906174004 36 153 3.2 17.7 0.00 0.00 0.00 43 1013.6
20260906173004 36 136 8.0 17.7 0.00 0.00 0.00 43 1013.7
20260906172004 36 101 4.8 17.7 0.00 0.00 0.00 43 1013.9
20260906171004 36 128 11.3 14.5 0.00 0.00 0.00 43 1014.1
20260906170004 36 110 6.4 11.3 0.00 0.00 0.00 45 1014.3
20260906165004 36 30 3.2 12.9 0.00 0.00 0.00 46 1014.4
20260906164211 35 62 3.2 17.7 0.00 0.00 0.00 46 1014.5
20260906163004 36 13 4.8 9.7 0.00 0.00 0.00 47 1014.5
20260906162211 35 142 1.6 9.7 0.00 0.00 0.00 48 1014.5
20260906161004 35 146 6.4 11.3 0.00 0.00 0.00 49 1014.5
20260906160004 34 116 3.2 11.3 0.00 0.00 0.00 52 1014.5
20260906155004 33 128 3.2 6.4 0.00 0.00 0.00 54 1014.4
20260906154212 33 31 3.2 11.3 0.00 0.00 0.00 55 1014.4
20260906153004 33 148 4.8 4.8 0.00 0.00 0.00 56 1014.3
20260906152211 32 16 4.8 6.4 0.00 0.00 0.00 58 1014.2
20260906151212 32 5 0.0 6.4 0.00 0.00 0.00 60 1014.3
20260906150211 31 40 3.2 9.7 0.00 0.00 0.00 62 1014.2
20260906145211 31 104 3.2 8.0 0.00 0.00 0.00 63 1014.3
20260906144003 30 122 4.8 8.0 0.00 0.00 0.00 64 1014.4
20260906143212 30 192 3.2 6.4 0.00 0.00 0.00 67 1014.5
20260906142004 29 191 1.6 6.4 0.00 0.00 0.00 69 1014.3
20260906141211 28 94 1.6 6.4 0.00 0.00 0.00 70 1014.3
20260906140211 28 142 4.8 11.3 0.00 0.00 0.00 73 1014.2
20260906135006 27 110 4.8 6.4 0.00 0.00 0.00 74 1014.2
20260906134004 27 129 4.8 8.0 0.00 0.00 0.00 76 1014.2
20260906133004 26 113 4.8 8.0 0.00 0.00 0.00 78 1014.2
20260906132211 26 136 3.2 9.7 0.00 0.00 0.00 80 1014.0
20260906131004 25 132 3.2 6.4 0.00 0.00 0.00 82 1014.0
20260906130004 25 93 3.2 4.8 0.00 0.00 0.00 83 1013.9
20260906125004 24 121 1.6 4.8 0.00 0.00 0.00 83 1013.8
20260906124004 24 103 1.6 4.8 0.00 0.00 0.00 83 1013.6
20260906123004 24 129 1.6 3.2 0.00 0.00 0.00 82 1013.6
20260906122004 24 129 1.6 3.2 0.00 0.00 0.00 82 1013.5
20260906121211 24 132 0.0 4.8 0.00 0.00 0.00 82 1013.4
20260906120004 24 130 3.2 6.4 0.00 0.00 0.00 82 1013.2
20260906115004 24 100 1.6 3.2 0.00 0.00 0.00 82 1013.2
20260906114004 24 128 1.6 3.2 0.00 0.00 0.00 81 1013.1
20260906113003 24 128 1.6 3.2 0.00 0.00 0.00 81 1013.1
20260906112212 24 128 0.0 3.2 0.00 0.00 0.00 81 1013.0
20260906111004 25 128 0.0 0.0 0.00 0.00 0.00 79 1013.0
20260906110004 25 128 0.0 0.0 0.00 0.00 0.00 78 1012.8
20260906105004 25 128 0.0 1.6 0.00 0.00 0.00 78 1012.7
20260906104004 25 128 0.0 1.6 0.00 0.00 0.00 78 1012.7
20260906103004 25 128 0.0 1.6 0.00 0.00 0.00 77 1012.7
20260906102211 25 128 0.0 1.6 0.00 0.00 0.00 77 1012.6
20260906101004 25 128 0.0 1.6 0.00 0.00 0.00 77 1012.5
20260906100004 26 128 0.0 0.0 0.00 0.00 0.00 76 1012.6
20260906095004 26 128 0.0 1.6 0.00 0.00 0.00 76 1012.5
20260906094004 26 128 0.0 3.2 0.00 0.00 0.00 76 1012.4
20260906093004 26 128 1.6 4.8 0.00 0.00 0.00 76 1012.4
20260906092004 26 128 1.6 3.2 0.00 0.00 0.00 75 1012.3
20260906091004 26 126 0.0 4.8 0.00 0.00 0.00 75 1012.2
20260906090004 26 123 1.6 4.8 0.00 0.00 0.00 74 1012.0
20260906085004 26 128 4.8 6.4 0.00 0.00 0.00 74 1012.0
20260906084212 26 126 1.6 4.8 0.00 0.00 0.00 73 1012.1
20260906083004 27 150 3.2 8.0 0.00 0.00 0.00 73 1012.2
20260906082004 27 126 3.2 9.7 0.00 0.00 0.00 73 1012.3
20260906081211 27 163 6.4 6.4 0.00 0.00 0.00 72 1012.4
20260906080004 27 108 1.6 4.8 0.00 0.00 0.00 72 1012.4
20260906075004 27 107 3.2 6.4 0.00 0.00 0.00 71 1012.3
20260906074004 27 127 3.2 6.4 0.00 0.00 0.00 70 1012.4
20260906073211 27 136 3.2 8.0 0.00 0.00 0.00 70 1012.4
20260906072004 28 135 3.2 8.0 0.00 0.00 0.00 69 1012.4
20260906071211 28 163 6.4 11.3 0.00 0.00 0.00 69 1012.5
20260906070004 28 111 4.8 8.0 0.00 0.00 0.00 69 1012.6
20260906065004 28 142 4.8 11.3 0.00 0.00 0.00 68 1012.7
20260906064004 28 161 1.6 11.3 0.00 0.00 0.00 69 1012.9
20260906063004 28 173 3.2 8.0 0.00 0.00 0.00 69 1012.8
20260906062211 28 155 4.8 8.0 0.00 0.00 0.00 69 1013.0
20260906061004 28 127 3.2 6.4 0.00 0.00 0.00 69 1013.1
20260906060211 28 156 1.6 3.2 0.00 0.00 0.00 69 1012.9
20260906055004 28 187 1.6 4.8 0.00 0.00 0.00 68 1013.0
20260906054004 28 167 0.0 6.4 0.00 0.00 0.00 68 1013.0
20260906053004 28 130 1.6 6.4 0.00 0.00 0.00 68 1013.0
20260906052003 29 128 3.2 6.4 0.00 0.00 0.00 67 1012.7
20260906051211 29 144 6.4 9.7 0.00 0.00 0.00 66 1012.7
20260906050004 30 139 4.8 8.0 0.00 0.00 0.00 65 1012.7
20260906045004 30 117 3.2 9.7 0.00 0.00 0.00 65 1012.8
20260906044004 30 148 4.8 11.3 0.00 0.00 0.00 64 1012.8
20260906043004 30 156 4.8 11.3 0.00 0.00 0.00 63 1012.8
20260906042004 30 137 3.2 9.7 0.00 0.00 0.00 62 1012.6
20260906041004 30 157 8.0 12.9 0.00 0.00 0.00 61 1012.6
20260906040004 30 134 4.8 12.9 0.00 0.00 0.00 60 1012.6
20260906035003 31 164 8.0 14.5 0.00 0.00 0.00 58 1012.7
20260906034004 31 131 6.4 12.9 0.00 0.00 0.00 57 1012.8
20260906033004 31 117 6.4 14.5 0.00 0.00 0.00 56 1012.8
20260906032004 31 142 8.0 9.7 0.00 0.00 0.00 55 1012.7
20260906031211 31 129 3.2 11.3 0.00 0.00 0.00 54 1012.5
20260906030211 32 174 8.0 9.7 0.00 0.00 0.00 53 1012.5
20260906025004 32 165 8.0 11.3 0.00 0.00 0.00 53 1012.3
20260906024004 32 137 8.0 12.9 0.00 0.00 0.00 52 1012.2
20260906023004 32 134 6.4 16.1 0.00 0.00 0.00 51 1011.9
20260906022211 32 162 11.3 16.1 0.00 0.00 0.00 51 1011.7
20260906021003 32 194 6.4 14.5 0.00 0.00 0.00 50 1011.6
20260906020004 32 145 6.4 12.9 0.00 0.00 0.00 50 1011.6
20260906015004 32 136 6.4 20.9 0.00 0.00 0.00 49 1011.4
20260906014004 33 177 4.8 17.7 0.00 0.00 0.00 49 1011.2
20260906013211 33 130 8.0 19.3 0.00 0.00 0.00 48 1011.1
20260906012004 34 141 3.2 19.3 0.00 0.00 0.00 46 1011.0
20260906011004 35 135 14.5 25.7 0.00 0.00 0.00 43 1010.7
20260906010004 35 131 1.6 9.7 0.00 0.00 0.00 41 1010.5
20260906005004 35 150 3.2 12.9 0.00 0.00 0.00 40 1010.5
20260906004004 35 137 3.2 11.3 0.00 0.00 0.00 39 1010.5
20260906003004 35 123 6.4 14.5 0.00 0.00 0.00 38 1010.5
20260906002004 36 153 6.4 11.3 0.00 0.00 0.00 37 1010.5
20260906001004 36 134 4.8 12.9 0.00 0.00 0.00 37 1010.3
20260906000212 36 126 4.8 14.5 0.00 0.00 0.00 36 1010.3
20260905235004 37 128 4.8 12.9 0.00 0.00 0.00 36 1010.4
20260905234004 37 139 11.3 14.5 0.00 0.00 0.00 35 1010.3
20260905233003 37 130 14.5 16.1 0.00 0.00 0.00 35 1010.3
20260905232211 37 98 3.2 14.5 0.00 0.00 0.00 35 1010.3
20260905231004 37 111 12.9 19.3 0.00 0.00 0.00 35 1010.3
20260905230004 37 158 8.0 14.5 0.00 0.00 0.00 34 1010.3
20260905225004 38 123 6.4 16.1 0.00 0.00 0.00 35 1010.2
20260905224004 38 121 6.4 11.3 0.00 0.00 0.00 34 1010.2